TimeEDT,TemperatureF,Dew PointF,Humidity,Sea Level PressureIn,VisibilityMPH,Wind Direction,Wind SpeedMPH,Gust SpeedMPH,PrecipitationIn,Events,Conditions,WindDirDegrees,DateUTC
12:36 AM,70.0,66.0,87,29.82,10.0,NW,10.4,-,N/A,,Overcast,310,2013-05-05 04:36:00
12:45 AM,70.0,66.0,87,29.82,10.0,NW,11.5,-,N/A,,Overcast,320,2013-05-05 04:45:00
12:53 AM,70.0,66.0,87,29.82,10.0,NNW,9.2,-,N/A,,Overcast,330,2013-05-05 04:53:00
1:53 AM,69.1,64.9,87,29.81,10.0,NW,11.5,-,N/A,,Overcast,310,2013-05-05 05:53:00
2:13 AM,69.1,64.9,87,29.81,6.0,NNW,12.7,-,0.00,Rain,Light Rain,330,2013-05-05 06:13:00
2:43 AM,68.0,64.9,90,29.81,8.0,NW,9.2,-,0.00,,Overcast,310,2013-05-05 06:43:00
2:53 AM,68.0,64.9,90,29.80,10.0,NNW,11.5,-,0.00,,Overcast,330,2013-05-05 06:53:00
3:08 AM,68.0,64.0,87,29.80,10.0,NNW,9.2,-,N/A,,Overcast,330,2013-05-05 07:08:00
3:26 AM,68.0,64.0,87,29.80,10.0,NNW,5.8,-,N/A,,Overcast,340,2013-05-05 07:26:00
3:48 AM,69.8,62.6,78,29.80,10.0,NW,6.9,-,N/A,,Overcast,320,2013-05-05 07:48:00
3:53 AM,69.1,61.0,75,29.80,10.0,NW,9.2,-,N/A,,Overcast,310,2013-05-05 07:53:00
4:11 AM,69.1,61.0,75,29.81,10.0,NW,9.2,-,N/A,,Overcast,310,2013-05-05 08:11:00
4:53 AM,69.1,59.0,70,29.82,10.0,NW,5.8,-,N/A,,Scattered Clouds,320,2013-05-05 08:53:00
5:53 AM,68.0,57.0,68,29.83,10.0,NNW,10.4,-,N/A,,Partly Cloudy,330,2013-05-05 09:53:00
6:53 AM,66.9,55.0,66,29.85,10.0,NNW,11.5,-,N/A,,Clear,340,2013-05-05 10:53:00
7:53 AM,66.9,53.1,61,29.88,10.0,NNW,9.2,-,N/A,,Clear,340,2013-05-05 11:53:00
8:53 AM,68.0,51.1,55,29.90,10.0,North,13.8,21.9,N/A,,Clear,350,2013-05-05 12:53:00
9:53 AM,69.1,51.1,53,29.91,10.0,NNW,17.3,24.2,N/A,,Clear,340,2013-05-05 13:53:00
10:53 AM,71.1,50.0,47,29.93,10.0,North,13.8,21.9,N/A,,Clear,10,2013-05-05 14:53:00
11:53 AM,72.0,48.9,44,29.93,10.0,North,13.8,24.2,N/A,,Clear,350,2013-05-05 15:53:00
12:53 PM,73.0,50.0,44,29.92,10.0,North,15.0,23.0,N/A,,Clear,360,2013-05-05 16:53:00
2:53 PM,73.9,48.9,41,29.91,10.0,North,16.1,21.9,N/A,,Clear,10,2013-05-05 18:53:00
3:53 PM,73.9,50.0,43,29.91,10.0,NNW,9.2,20.7,N/A,,Clear,340,2013-05-05 19:53:00
4:53 PM,73.9,52.0,46,29.90,10.0,NNW,12.7,24.2,N/A,,Clear,340,2013-05-05 20:53:00
5:53 PM,73.9,53.1,48,29.91,10.0,NNW,10.4,21.9,N/A,,Clear,330,2013-05-05 21:53:00
6:53 PM,73.0,55.0,53,29.91,10.0,NNW,8.1,-,N/A,,Clear,330,2013-05-05 22:53:00
7:53 PM,71.1,57.0,61,29.92,10.0,WNW,5.8,-,N/A,,Clear,290,2013-05-05 23:53:00
8:53 PM,71.1,57.0,61,29.93,10.0,West,6.9,-,N/A,,Clear,280,2013-05-06 00:53:00
9:53 PM,71.1,57.9,63,29.94,10.0,West,5.8,-,N/A,,Clear,260,2013-05-06 01:53:00
10:53 PM,72.0,57.9,61,29.94,10.0,West,8.1,-,N/A,,Clear,270,2013-05-06 02:53:00
11:53 PM,72.0,59.0,64,29.94,10.0,West,8.1,-,N/A,,Clear,260,2013-05-06 03:53:00